Regional Weather Roundup
Issued by NWS

Home | Current Version | Previous Version | Text Only | Print | Product List | Glossary On
Versions: 1 2 3 4 5 6 7 8 9 10 11 12 13 14 15 16 17 18 19 20 21 22 23 24 25 26 27 28 29 30 31 32 33 34 35 36 37 38 39 40 41 42 43 44 45 46 47 48 49 50
000
ASUS43 KMKX 201300
RWRWI

WISCONSIN REGIONAL WEATHER ROUNDUP
NATIONAL WEATHER SERVICE MILWAUKEE/SULLIVAN WI
800 AM CDT WED AUG 20 2014

NOTE: "FAIR" INDICATES FEW OR NO CLOUDS BELOW 12,000 FEET WITH NO
SIGNIFICANT WEATHER AND/OR OBSTRUCTIONS TO VISIBILITY.

WIZ001-002-006>008-014>016-023>028-201400-
NORTHWEST WISCONSIN

CITY           SKY/WX    TMP DP  RH WIND       PRES   REMARKS
SUPERIOR ARPT  CLOUDY    62  60  95 CALM      29.87S
ASHLAND        CLOUDY    61  59  93 SW3       29.89R
HAYWARD        CLOUDY    60  59  96 NE3       29.88S
SIREN          CLOUDY    60  60  98 CALM      29.87R FOG
RICE LAKE      FOG       60  58  96 N5        29.88S VSB 1/2
LADYSMITH      CLOUDY    61  59  94 N5        29.89R
EAU CLAIRE     CLOUDY    61  61 100 NE8       29.86R FOG
MENOMONIE      CLOUDY    62  61  96 CALM      29.88R
NEW RICHMOND   PTSUNNY   60  60 100 NE3       29.86R FOG
OSCEOLA        CLOUDY    62  62 100 E5        29.88R
$$

WIZ003>005-009-010-017-018-201400-
NORTH CENTRAL WISCONSIN

CITY           SKY/WX    TMP DP  RH WIND       PRES   REMARKS
WOODRUFF       CLOUDY    59  57  92 NW3       29.88R
RHINELANDER    CLOUDY    59  57  93 CALM      29.88R
EAGLE RIVER    CLOUDY    58  57  98 N3        29.88R
LAND O LAKES   CLOUDY    57  57  98 NW3       29.89R FOG
PHILLIPS       CLOUDY    58  57  97 CALM      29.88R
TOMAHAWK       CLOUDY    58  57  97 NW5       29.88S
MEDFORD        CLOUDY    58  57  97 N9        29.87S
MERRILL        CLOUDY    60  60  99 N3        29.86S
$$

WIZ029-030-035-036-043>047-201400-
CENTRAL WISCONSIN

CITY           SKY/WX    TMP DP  RH WIND       PRES   REMARKS
WAUSAU         CLOUDY    61  59  93 N7        29.84F
MOSINEE        CLOUDY    59  59 100 N12       29.86S
MARSHFIELD     FOG       60  59  96 N5        29.86R VSB 1
STEVENS POINT  CLOUDY    58  57  99 N9        29.84S FOG
WAUPACA        MOSUNNY   65  64  94 N3        29.84R
WAUTOMA        FOG       63  63 100 CALM      29.83S VSB 1/4
WISC RAPIDS    SUNNY     65  62  90 CALM      29.86R
CAMP DOUGLAS   FOG       63  63 100 NW2       29.87R VSB 1/2
$$

WIZ011>013-019>022-031-037>040-048>050-201400-
NORTHEAST WISCONSIN

CITY           SKY/WX    TMP DP  RH WIND       PRES   REMARKS
ANTIGO         CLOUDY    59  58  99 NW6       29.86S FOG
STURGEON BAY   CLOUDY    63  59  88 NW9       29.82S
GREEN BAY      PTSUNNY   64  61  90 NW3       29.83R
MANITOWOC      NOT AVBL
APPLETON       PTSUNNY   63  63 100 N7        29.84R
CLINTONVILLE   SUNNY     63  59  88 NW6       29.83R
OSHKOSH        SUNNY     66  63  90 N3        29.83R
$$

WIZ032>034-041-042-053>061-201400-
SOUTHWEST WISCONSIN

CITY           SKY/WX    TMP DP  RH WIND       PRES   REMARKS
LA CROSSE      CLOUDY    67  64  90 CALM      29.86R FOG
SPARTA         FOG       59  59  99 CALM      29.87R VSB<1/4
VIROQUA        FAIR      63  63 100 CALM      29.87R
BOSCOBEL       FOG       64  63  96 CALM      29.86R VSB<1/4
PRAIRIE DU CHI FOG       64  63  95 CALM      29.84S VSB 1/4
PLATTEVILLE    FAIR      66  64  93 CALM      29.87R
$$

WIZ056-057-062-063-064-067-068-201400-
SOUTH CENTRAL WISCONSIN

CITY           SKY/WX    TMP DP  RH WIND       PRES   REMARKS
BARABOO/DELLS  SUNNY     64  62  94 SW3       29.86R
LONE ROCK      NOT AVBL
WATERTOWN      SUNNY     65  64  98 SW3       29.84R
MADISON        MOSUNNY   71  65  81 CALM      29.86R
MIDDLETON      FAIR      65  65 100 CALM      29.86R
MONROE         SUNNY     68  63  83 W6        29.86R
JANESVILLE     MOSUNNY   68  64  88 CALM      29.86R
$$

WIZ051-052-058>065-066-070>072-201400-
SOUTHEAST WISCONSIN

CITY           SKY/WX    TMP DP  RH WIND       PRES   REMARKS
MILWAUKEE      SUNNY     70  62  76 W6        29.84R
WAUKESHA       NOT AVBL
MILWAUKEE/TIMM NOT AVBL
RACINE         SUNNY     69  64  84 W5        29.87R
BURLINGTON     SUNNY     63  63 100 SW5       29.85R FOG
KENOSHA        SUNNY     68  65  90 W3        29.85R
FOND DU LAC    SUNNY     67  62  84 CALM      29.84R
SHEBOYGAN      SUNNY     65  63  93 CALM      29.83R
WEST BEND      SUNNY     64  61  88 CALM      29.83R
JUNEAU         SUNNY     64  38  38 CALM      29.85R
$$

LSZ147-162-201400-
LAKE SUPERIOR

STATION/POSITION TIME  TEMP    WIND        PRES    WAVE
                       AIR SEA DIR/SP/G            HT/PER
                 (UTC) (F)     (DEG/KT/KT) (MB)    (FT/S)
W MID LAKE BUOY  1150   59 58  270/  6/  6 1010.4R   1
DEVILS ISLAND    1200   60     250/  8/  9 1011.2R
PORT WING        1200   61     210/  2/  3 1011.9R
SAXON HARBOR     1200   60        CALM     1011.5R
$$

LMZ867-665-643>646-201400-
LAKE MICHIGAN

STATION/POSITION TIME  TEMP    WIND        PRES    WAVE
                       AIR SEA DIR/SP/G            HT/PER
                 (UTC) (F)     (DEG/KT/KT) (MB)    (FT/S)
N MID LAKE BUOY  1150   60 62  310/ 10/ 10 1008.4R   1/ 3
NORTHPORT PIER   1200   63     340/ 10/ 12 1009.1S
SISTER BAY       1211   62     350/ 12/ 13   N/A
KEWAUNEE LAKESHO 1200   62     290/  1/  2 1008.7R
SHEBOYGAN LAKESH 1200   65 65  310/  5/  6 1009.7F
ATWATER BUOY     1200   67     280/  4     1011.1R
MILWAUKEE LAKESH 1200   68     290/  4/  6   N/A
S MID LAKE BUOY  1150   67 66  270/  4/  6 1009.9R   1
KENOSHA   LAKESH 1200   69     260/  6/  8 1010.2R
$$

TC  - TEMPERATURE IN CELSIUS
VSB - VISIBILITY IN STATUTE MILES
WCI - WIND CHILL INDEX
HX  - HEAT INDEX



USA.gov is the U.S. government's official web portal to all federal, state and local government web resources and services.